FW7508 Weather Reports


time (UTC)temp
C
wind
direction
speed
KPH
gust
KPH
rain 1hr
cm
rain 24hr
cm
rain mn
cm
humidity
%
barometer
mb
20260509124309 11 237 4.8 8.0 0.00 0.00 0.00 88 1004.9
20260509123808 11 279 9.7 12.9 0.00 0.00 0.00 87 1005.0
20260509123304 11 291 3.2 3.2 0.00 0.00 0.00 87 1004.9
20260509122800 11 284 8.0 12.9 0.00 0.00 0.00 87 1004.9
20260509122257 11 255 4.8 4.8 0.00 0.00 0.00 87 1005.0
20260509121754 11 253 6.4 8.0 0.00 0.00 0.00 88 1004.9
20260509121251 11 256 3.2 3.2 0.00 0.00 0.00 89 1005.1
20260509120749 11 281 3.2 3.2 0.00 0.00 0.00 90 1005.2
20260509120247 10 288 4.8 4.8 0.00 0.00 0.00 90 1005.1
20260509115745 11 264 3.2 4.8 0.00 0.00 0.00 90 1005.1
20260509115241 11 246 4.8 9.7 0.00 0.00 0.00 90 1004.9
20260509114739 11 273 3.2 3.2 0.00 0.00 0.00 90 1005.1
20260509114238 11 274 3.2 3.2 0.00 0.00 0.00 90 1005.0
20260509113736 11 275 3.2 3.2 0.00 0.00 0.00 90 1004.7
20260509113233 11 268 4.8 4.8 0.00 0.00 0.00 90 1004.5
20260509112730 11 242 6.4 9.7 0.00 0.00 0.00 90 1004.9
20260509112227 11 257 4.8 4.8 0.00 0.00 0.00 90 1004.6
20260509111724 11 241 4.8 8.0 0.00 0.00 0.00 89 1004.7
20260509111221 11 271 4.8 4.8 0.00 0.00 0.00 88 1004.4
20260509110718 11 235 4.8 8.0 0.00 0.00 0.00 88 1004.7
20260509110215 11 274 4.8 4.8 0.00 0.00 0.00 88 1004.4
20260509105713 11 236 3.2 4.8 0.00 0.00 0.00 87 1004.3
20260509105210 11 225 3.2 4.8 0.00 0.00 0.00 86 1004.6
20260509104707 11 271 9.7 12.9 0.00 0.00 0.00 88 1004.2
20260509104204 11 257 3.2 4.8 0.00 0.00 0.00 89 1004.3
20260509103702 11 286 1.6 3.2 0.00 0.00 0.00 89 1004.2
20260509103159 11 277 4.8 8.0 0.00 0.00 0.00 90 1004.2
20260509102657 11 280 4.8 8.0 0.00 0.00 0.00 90 1004.3
20260509102154 11 261 3.2 3.2 0.00 0.00 0.00 90 1004.4
20260509101650 11 277 4.8 4.8 0.00 0.00 0.00 90 1004.4
20260509101147 11 269 3.2 3.2 0.00 0.00 0.00 90 1004.8
20260509100644 11 271 4.8 4.8 0.00 0.00 0.00 90 1004.8
20260509100141 11 291 1.6 1.6 0.00 0.00 0.00 90 1004.7
20260509095638 11 264 4.8 4.8 0.00 0.00 0.00 90 1004.8
20260509095135 11 237 4.8 4.8 0.00 0.00 0.00 90 1004.8
20260509094631 11 290 1.6 3.2 0.00 0.00 0.00 90 1004.7
20260509094129 11 0 3.2 8.0 0.00 0.00 0.00 90 1005.1
20260509093627 11 256 3.2 3.2 0.00 0.00 0.00 90 1005.0
20260509093123 11 289 4.8 4.8 0.00 0.00 0.00 90 1005.4
20260509092621 11 222 8.0 11.3 0.00 0.00 0.00 90 1005.2
20260509092120 11 261 3.2 3.2 0.00 0.00 0.00 90 1005.4
20260509091618 11 263 4.8 4.8 0.00 0.00 0.00 90 1005.0
20260509091113 11 286 3.2 3.2 0.00 0.00 0.00 91 1005.6
20260509090612 11 271 3.2 4.8 0.00 0.00 0.00 90 1005.4
20260509090109 11 190 6.4 11.3 0.00 0.00 0.00 90 1005.4
20260509085606 11 259 3.2 3.2 0.00 0.00 0.00 90 1005.6
20260509085102 11 197 8.0 9.7 0.00 0.00 0.00 89 1005.7
20260509084559 11 266 4.8 4.8 0.00 0.00 0.00 88 1005.5
20260509084056 11 285 4.8 8.0 0.00 0.00 0.00 88 1005.8
20260509083554 12 268 4.8 4.8 0.00 0.00 0.00 88 1005.5
20260509083050 12 260 3.2 3.2 0.00 0.00 0.00 88 1005.6
20260509082548 12 262 3.2 3.2 0.00 0.00 0.00 88 1005.6
20260509082044 11 285 1.6 3.2 0.00 0.00 0.00 88 1005.8
20260509081542 11 266 3.2 3.2 0.00 0.00 0.00 88 1006.1
20260509081038 11 255 3.2 3.2 0.00 0.00 0.00 88 1006.0
20260509080536 11 274 1.6 3.2 0.00 0.00 0.00 87 1005.9
20260509080034 12 272 3.2 3.2 0.00 0.00 0.00 87 1005.9
20260509075531 12 271 1.6 3.2 0.00 0.00 0.00 86 1006.0
20260509075029 12 278 3.2 3.2 0.00 0.00 0.00 86 1006.1
20260509074526 12 280 4.8 4.8 0.00 0.00 0.00 85 1006.2
20260509074023 12 271 4.8 4.8 0.00 0.00 0.00 85 1006.3
20260509073519 12 254 1.6 3.2 0.00 0.00 0.00 85 1006.5
20260509073016 12 281 1.6 1.6 0.00 0.00 0.00 85 1006.2
20260509072512 12 282 6.4 8.0 0.00 0.00 0.00 86 1006.3
20260509072009 12 265 1.6 3.2 0.00 0.00 0.00 85 1006.4
20260509071506 12 265 4.8 4.8 0.00 0.00 0.00 85 1006.5
20260509071003 12 197 3.2 4.8 0.00 0.00 0.00 86 1006.6
20260509070500 12 278 3.2 3.2 0.00 0.00 0.00 85 1006.8
20260509065956 12 257 3.2 4.8 0.00 0.00 0.00 85 1006.8
20260509065452 12 266 1.6 3.2 0.00 0.00 0.00 84 1006.9
20260509064948 12 240 4.8 4.8 0.00 0.00 0.00 83 1007.1
20260509064446 12 301 4.8 8.0 0.00 0.00 0.00 83 1007.0
20260509063944 12 258 4.8 4.8 0.00 0.00 0.00 82 1007.0
20260509063445 12 264 1.6 3.2 0.00 0.00 0.00 81 1007.3
20260509062942 12 274 3.2 3.2 0.00 0.00 0.00 80 1007.2
20260509062439 12 284 4.8 8.0 0.00 0.00 0.00 79 1007.3
20260509061937 12 273 1.6 1.6 0.00 0.00 0.00 76 1007.1
20260509061434 12 251 1.6 3.2 0.00 0.00 0.00 71 1007.5
20260509060931 12 279 1.6 1.6 0.00 0.00 0.00 70 1007.4
20260509060428 12 259 3.2 4.8 0.00 0.00 0.00 66 1007.4
20260509055923 12 281 1.6 3.2 0.00 0.00 0.00 62 1007.7
20260509055419 11 243 3.2 4.8 0.00 0.00 0.00 59 1007.6
20260509054916 11 266 1.6 1.6 0.00 0.00 0.00 58 1007.7
20260509054413 11 274 1.6 1.6 0.00 0.00 0.00 57 1007.6
20260509053911 11 265 1.6 1.6 0.00 0.00 0.00 57 1007.7
20260509053409 11 274 0.0 1.6 0.00 0.00 0.00 56 1007.5
20260509052906 11 245 3.2 3.2 0.00 0.00 0.00 56 1007.6
20260509052403 11 235 3.2 3.2 0.00 0.00 0.00 56 1007.8
20260509051901 11 278 1.6 1.6 0.00 0.00 0.00 55 1007.8
20260509051359 11 260 1.6 3.2 0.00 0.00 0.00 55 1007.6
20260509050855 11 256 3.2 3.2 0.00 0.00 0.00 55 1007.8
20260509050352 11 280 0.0 0.0 0.00 0.00 0.00 55 1007.7
20260509045849 10 283 0.0 1.6 0.00 0.00 0.00 55 1007.8
20260509045346 11 236 4.8 8.0 0.00 0.00 0.00 54 1007.5
20260509044843 10 274 0.0 1.6 0.00 0.00 0.00 53 1007.8
20260509044341 10 286 0.0 0.0 0.00 0.00 0.00 52 1007.8
20260509043837 10 274 1.6 1.6 0.00 0.00 0.00 52 1008.0
20260509043333 10 255 1.6 3.2 0.00 0.00 0.00 51 1007.7
20260509042829 10 272 1.6 1.6 0.00 0.00 0.00 51 1007.9
20260509042326 10 278 0.0 1.6 0.00 0.00 0.00 50 1007.9
20260509041822 10 280 0.0 0.0 0.00 0.00 0.00 50 1007.8
20260509041319 10 280 0.0 0.0 0.00 0.00 0.00 49 1008.0
20260509040818 10 289 0.0 0.0 0.00 0.00 0.00 48 1008.3
20260509040315 10 282 0.0 0.0 0.00 0.00 0.00 47 1008.3
20260509035812 10 282 0.0 0.0 0.00 0.00 0.00 47 1008.3
20260509035309 10 268 0.0 0.0 0.00 0.00 0.00 46 1008.4
20260509034805 10 276 0.0 0.0 0.00 0.00 0.00 46 1008.7
20260509034303 10 276 0.0 0.0 0.00 0.00 0.00 45 1008.7
20260509033759 10 275 0.0 0.0 0.00 0.00 0.00 44 1008.5
20260509033257 10 276 0.0 0.0 0.00 0.00 0.00 43 1008.6
20260509032754 10 276 0.0 0.0 0.00 0.00 0.00 43 1008.9
20260509032250 10 277 0.0 0.0 0.00 0.00 0.00 42 1008.9
20260509031748 10 277 0.0 0.0 0.00 0.00 0.00 41 1008.8
20260509031245 10 277 0.0 0.0 0.00 0.00 0.00 40 1009.0
20260509030743 11 276 0.0 0.0 0.00 0.00 0.00 39 1009.0
20260509030241 11 278 0.0 0.0 0.00 0.00 0.00 39 1009.2
20260509025737 11 278 0.0 0.0 0.00 0.00 0.00 39 1008.9
20260509025233 11 280 0.0 0.0 0.00 0.00 0.00 38 1008.8
20260509024728 11 278 0.0 0.0 0.00 0.00 0.00 37 1009.0
20260509024224 11 285 0.0 0.0 0.00 0.00 0.00 37 1009.2
20260509023722 11 276 0.0 0.0 0.00 0.00 0.00 37 1009.2
20260509023219 11 275 0.0 0.0 0.00 0.00 0.00 37 1009.2
20260509022715 10 277 0.0 0.0 0.00 0.00 0.00 37 1009.1
20260509022213 11 277 0.0 0.0 0.00 0.00 0.00 36 1009.2
20260509021710 11 277 0.0 0.0 0.00 0.00 0.00 38 1009.2
20260509021207 11 277 0.0 0.0 0.00 0.00 0.00 37 1009.3
20260509020705 11 278 0.0 0.0 0.00 0.00 0.00 37 1009.4
20260509020202 11 278 0.0 0.0 0.00 0.00 0.00 35 1009.4
20260509015700 11 278 0.0 1.6 0.00 0.00 0.00 35 1009.4
20260509015158 11 280 0.0 0.0 0.00 0.00 0.00 34 1009.1
20260509014654 11 279 0.0 0.0 0.00 0.00 0.00 36 1009.4
20260509014150 11 280 0.0 0.0 0.00 0.00 0.00 34 1009.1
20260509013648 11 280 0.0 0.0 0.00 0.00 0.00 36 1009.2
20260509013143 12 280 0.0 0.0 0.00 0.00 0.00 35 1009.2
20260509012640 12 280 0.0 0.0 0.00 0.00 0.00 35 1008.9
20260509012137 12 279 0.0 0.0 0.00 0.00 0.00 35 1008.8
20260509011635 12 274 0.0 1.6 0.00 0.00 0.00 34 1008.9
20260509011132 12 277 0.0 0.0 0.00 0.00 0.00 34 1008.9
20260509010630 12 278 0.0 0.0 0.00 0.00 0.00 34 1008.9
20260509010126 13 278 0.0 0.0 0.00 0.00 0.00 33 1009.1
20260509005624 13 278 0.0 1.6 0.00 0.00 0.00 32 1009.0
20260509005120 13 281 1.6 1.6 0.00 0.00 0.00 31 1008.8
20260509004616 13 275 0.0 0.0 0.00 0.00 0.00 30 1008.8
20260509004113 13 279 0.0 0.0 0.00 0.00 0.00 29 1008.9
20260509003611 14 282 0.0 0.0 0.00 0.00 0.00 29 1008.9
20260509003108 14 281 0.0 0.0 0.00 0.00 0.00 28 1008.9
20260509002605 15 272 0.0 1.6 0.00 0.00 0.00 27 1009.0
20260509002057 15 275 1.6 1.6 0.00 0.00 0.00 27 1009.0
20260509001555 15 274 1.6 3.2 0.00 0.00 0.00 26 1009.0
20260509001050 15 267 1.6 3.2 0.00 0.00 0.00 25 1009.3
20260509000549 15 279 0.0 0.0 0.00 0.00 0.00 26 1009.3
20260509000044 15 235 4.8 4.8 0.00 0.00 0.00 25 1009.1
20260508235543 15 247 3.2 3.2 0.00 0.00 0.00 25 1009.4
20260508235038 15 233 1.6 3.2 0.00 0.00 0.00 25 1009.3
20260508234536 15 258 3.2 3.2 0.00 0.00 0.00 25 1009.4
20260508234033 15 273 1.6 1.6 0.00 0.00 0.00 24 1009.4
20260508233532 15 265 3.2 3.2 0.00 0.00 0.00 23 1009.5
20260508233029 16 210 6.4 8.0 0.00 0.00 0.00 24 1009.7
20260508232526 16 286 1.6 1.6 0.00 0.00 0.00 25 1009.9
20260508232022 15 288 0.0 0.0 0.00 0.00 0.00 27 1009.6
20260508231520 16 259 3.2 3.2 0.00 0.00 0.00 26 1009.7
20260508231017 16 274 0.0 1.6 0.00 0.00 0.00 27 1009.8
20260508230514 16 282 3.2 3.2 0.00 0.00 0.00 27 1009.9
20260508230011 16 248 3.2 3.2 0.00 0.00 0.00 27 1010.0
20260508225508 16 278 1.6 1.6 0.00 0.00 0.00 27 1010.2
20260508225004 15 261 3.2 3.2 0.00 0.00 0.00 28 1010.1
20260508224503 16 265 4.8 4.8 0.00 0.00 0.00 27 1009.8
20260508223959 16 274 3.2 4.8 0.00 0.00 0.00 27 1010.1
20260508223457 16 285 1.6 1.6 0.00 0.00 0.00 28 1010.1
20260508222954 16 286 1.6 3.2 0.00 0.00 0.00 27 1010.0
20260508222451 16 290 3.2 3.2 0.00 0.00 0.00 27 1010.3
20260508221948 16 284 1.6 3.2 0.00 0.00 0.00 27 1010.5
20260508221444 15 284 1.6 1.6 0.00 0.00 0.00 29 1010.5
20260508220940 15 280 1.6 3.2 0.00 0.00 0.00 29 1010.6
20260508220437 15 285 1.6 3.2 0.00 0.00 0.00 27 1010.4
20260508215933 16 287 3.2 3.2 0.00 0.00 0.00 27 1010.5
20260508215431 16 288 3.2 3.2 0.00 0.00 0.00 27 1010.4
20260508214927 16 284 1.6 1.6 0.00 0.00 0.00 27 1010.3
20260508214425 16 274 4.8 8.0 0.00 0.00 0.00 27 1010.3
20260508213920 16 278 6.4 8.0 0.00 0.00 0.00 27 1010.5
20260508213418 16 283 3.2 4.8 0.00 0.00 0.00 28 1010.6
20260508212914 16 283 1.6 1.6 0.00 0.00 0.00 27 1010.6
20260508212410 16 281 3.2 3.2 0.00 0.00 0.00 28 1010.5
20260508211906 15 276 1.6 3.2 0.00 0.00 0.00 28 1010.5
20260508211402 16 285 3.2 3.2 0.00 0.00 0.00 27 1010.5
20260508210900 16 277 4.8 4.8 0.00 0.00 0.00 27 1010.6
20260508210356 16 284 1.6 3.2 0.00 0.00 0.00 27 1011.1
20260508205852 16 253 3.2 3.2 0.00 0.00 0.00 27 1011.0
20260508205349 16 263 3.2 3.2 0.00 0.00 0.00 28 1011.2
20260508204845 16 281 3.2 4.8 0.00 0.00 0.00 30 1011.1
20260508204343 16 283 4.8 4.8 0.00 0.00 0.00 31 1011.1
20260508203838 16 272 4.8 8.0 0.00 0.00 0.00 31 1011.2
20260508203335 16 285 3.2 3.2 0.00 0.00 0.00 30 1011.3
20260508202831 16 281 3.2 4.8 0.00 0.00 0.00 31 1011.4
20260508202328 15 281 3.2 3.2 0.00 0.00 0.00 33 1011.4
20260508201825 16 276 3.2 3.2 0.00 0.00 0.00 32 1011.5
20260508201322 16 271 1.6 1.6 0.00 0.00 0.00 35 1011.5
20260508200818 16 278 4.8 4.8 0.00 0.00 0.00 33 1011.8
20260508200315 15 279 1.6 3.2 0.00 0.00 0.00 34 1011.8
20260508195811 15 261 3.2 3.2 0.00 0.00 0.00 35 1011.9
20260508195308 16 287 4.8 4.8 0.00 0.00 0.00 34 1011.9
20260508194804 16 278 3.2 3.2 0.00 0.00 0.00 33 1011.8
20260508194302 16 276 3.2 3.2 0.00 0.00 0.00 34 1012.1
20260508193759 16 269 1.6 1.6 0.00 0.00 0.00 35 1011.8
20260508193255 16 279 4.8 4.8 0.00 0.00 0.00 33 1011.9
20260508192751 16 272 1.6 1.6 0.00 0.00 0.00 36 1012.4
20260508192249 16 268 1.6 1.6 0.00 0.00 0.00 36 1012.0
20260508191746 15 275 4.8 4.8 0.00 0.00 0.00 37 1012.4
20260508191243 16 274 3.2 3.2 0.00 0.00 0.00 37 1012.2
20260508190740 15 270 0.0 1.6 0.00 0.00 0.00 36 1012.3
20260508190236 15 272 4.8 4.8 0.00 0.00 0.00 38 1012.4
20260508185733 15 259 3.2 3.2 0.00 0.00 0.00 39 1012.4
20260508185230 15 284 3.2 3.2 0.00 0.00 0.00 42 1012.5
20260508184727 14 274 6.4 8.0 0.00 0.00 0.00 42 1012.6
20260508184224 14 276 4.8 4.8 0.00 0.00 0.00 40 1012.5
20260508183721 14 281 1.6 3.2 0.00 0.00 0.00 41 1012.4
20260508183217 13 281 4.8 4.8 0.00 0.00 0.00 42 1012.6
20260508182713 13 272 4.8 4.8 0.00 0.00 0.00 42 1012.6
20260508182210 14 284 4.8 4.8 0.00 0.00 0.00 41 1012.7
20260508181706 15 280 3.2 3.2 0.00 0.00 0.00 37 1012.6
20260508181203 15 280 3.2 4.8 0.00 0.00 0.00 32 1012.7
20260508180659 15 259 3.2 3.2 0.00 0.00 0.00 37 1012.9
20260508180156 15 278 3.2 3.2 0.00 0.00 0.00 34 1012.9
20260508175648 15 272 4.8 4.8 0.00 0.00 0.00 34 1012.9
20260508175144 14 278 3.2 3.2 0.00 0.00 0.00 37 1012.9
20260508174642 14 282 3.2 3.2 0.00 0.00 0.00 32 1013.0
20260508174138 15 284 3.2 3.2 0.00 0.00 0.00 34 1013.0
20260508173635 15 284 1.6 1.6 0.00 0.00 0.00 34 1013.0
20260508173131 15 270 1.6 3.2 0.00 0.00 0.00 33 1012.9
20260508172629 15 270 3.2 3.2 0.00 0.00 0.00 32 1013.2
20260508172125 15 290 4.8 8.0 0.00 0.00 0.00 34 1013.3
20260508171622 15 266 3.2 4.8 0.00 0.00 0.00 31 1013.4
20260508171118 15 274 1.6 1.6 0.00 0.00 0.00 33 1013.1
20260508170616 15 264 1.6 3.2 0.00 0.00 0.00 32 1013.4
20260508170113 14 279 4.8 4.8 0.00 0.00 0.00 35 1013.6
20260508165610 14 306 4.8 4.8 0.00 0.00 0.00 35 1013.6
20260508165106 14 277 3.2 3.2 0.00 0.00 0.00 36 1013.8
20260508164603 13 269 4.8 4.8 0.00 0.00 0.00 37 1014.0
20260508164100 14 237 4.8 4.8 0.00 0.00 0.00 37 1014.0
20260508163557 14 274 4.8 4.8 0.00 0.00 0.00 37 1014.0
20260508163054 14 274 3.2 3.2 0.00 0.00 0.00 36 1013.9
20260508162551 14 263 3.2 3.2 0.00 0.00 0.00 39 1014.0
20260508162048 14 226 3.2 3.2 0.00 0.00 0.00 39 1013.9
20260508161545 14 272 4.8 4.8 0.00 0.00 0.00 41 1014.0
20260508161042 15 262 3.2 3.2 0.00 0.00 0.00 38 1014.0
20260508160541 15 279 1.6 3.2 0.00 0.00 0.00 40 1013.8
20260508160037 15 276 1.6 3.2 0.00 0.00 0.00 40 1013.9
20260508155534 14 256 3.2 3.2 0.00 0.00 0.00 42 1014.1
20260508155031 14 276 3.2 4.8 0.00 0.00 0.00 42 1014.0
20260508154528 13 246 1.6 3.2 0.00 0.00 0.00 41 1014.1
20260508154025 13 330 4.8 4.8 0.00 0.00 0.00 44 1013.9
20260508153522 13 271 3.2 3.2 0.00 0.00 0.00 44 1014.1
20260508153019 14 200 1.6 3.2 0.00 0.00 0.00 46 1014.0
20260508152515 13 276 1.6 1.6 0.00 0.00 0.00 50 1013.9
20260508152010 13 281 0.0 0.0 0.00 0.00 0.00 50 1013.9
20260508151508 13 283 1.6 3.2 0.00 0.00 0.00 57 1014.1
20260508151004 13 199 3.2 8.0 0.00 0.00 0.00 58 1014.3
20260508150502 13 311 3.2 3.2 0.00 0.00 0.00 60 1014.3
20260508145956 12 278 0.0 1.6 0.00 0.00 0.00 61 1014.1
20260508145454 12 277 3.2 3.2 0.00 0.00 0.00 66 1014.1
20260508144950 12 275 6.4 9.7 0.00 0.00 0.00 65 1014.2
20260508144448 12 284 1.6 1.6 0.00 0.00 0.00 65 1014.3
20260508143945 12 279 3.2 3.2 0.00 0.00 0.00 62 1014.2
20260508143443 12 278 1.6 1.6 0.00 0.00 0.00 65 1014.4
20260508142939 12 309 0.0 0.0 0.00 0.00 0.00 64 1014.2
20260508142437 12 294 1.6 1.6 0.00 0.00 0.00 67 1014.2
20260508141933 12 290 3.2 3.2 0.00 0.00 0.00 67 1014.4
20260508141429 11 284 3.2 4.8 0.00 0.00 0.00 72 1014.5
20260508140927 11 266 1.6 3.2 0.00 0.00 0.00 70 1014.4
20260508140424 12 272 1.6 3.2 0.00 0.00 0.00 67 1014.4
20260508135919 12 289 1.6 1.6 0.00 0.00 0.00 69 1014.4
20260508135417 12 292 3.2 3.2 0.00 0.00 0.00 66 1014.3
20260508134913 12 321 1.6 3.2 0.00 0.00 0.00 62 1014.3
20260508134409 12 313 3.2 3.2 0.00 0.00 0.00 64 1014.4
20260508133906 12 350 1.6 1.6 0.00 0.00 0.00 64 1014.3
20260508133404 12 323 0.0 0.0 0.00 0.00 0.00 66 1014.2
20260508132901 11 295 1.6 1.6 0.00 0.00 0.00 67 1014.3
20260508132359 11 318 1.6 1.6 0.00 0.00 0.00 68 1014.4
20260508131855 11 291 0.0 0.0 0.00 0.00 0.00 68 1014.4
20260508131350 11 308 1.6 1.6 0.00 0.00 0.00 69 1014.6
20260508130847 10 319 4.8 4.8 0.00 0.00 0.00 70 1014.4
20260508130344 10 290 0.0 0.0 0.00 0.00 0.00 71 1014.5
20260508125840 9 288 0.0 0.0 0.00 0.00 0.00 74 1014.7
20260508125336 9 288 0.0 0.0 0.00 0.00 0.00 74 1014.8
20260508124835 8 288 1.6 1.6 0.00 0.00 0.00 74 1014.6